Salt Lake City, UT

7:39 AM MDT on August 26, 2016 (GMT -0600)
Salt Lake City International

Weather History for KSLC - November, 2013

Change the Weather History Date:

Thursday, November 7, 2013

  Actual Average Record
Temperature  
Mean Temperature 50 °F 44 °F  
Max Temperature 60 °F 54 °F 74 °F (1980)
Min Temperature 40 °F 34 °F 19 °F (1961)
Degree Days  
Heating Degree Days 15 21  
Month to date heating degree days 133 138  
Since 1 July heating degree days 571 606  
Cooling Degree Days 0 0  
Month to date cooling degree days 0 0  
Year to date cooling degree days 1768 1160  
Moisture  
Dew Point 28 °F    
Average Humidity 44    
Maximum Humidity 59    
Minimum Humidity 28    
Precipitation  
Precipitation 0.00 in 0.05 in 0.63 in (1970)
Month to date precipitation 0.29 0.35  
Year to date precipitation 9.64 13.59  
Snow  
Snow 0.00 in 0.20 in 4.60 in (1945)
Month to date snowfall 3.5 0.9  
Since 1 July snowfall 3.5 2.3  
Snow Depth 0.00 in    
Sea Level Pressure  
Sea Level Pressure 30.18 in    
Wind  
Wind Speed 10 mph (SSE)    
Max Wind Speed 17 mph    
Max Gust Speed 22 mph    
Visibility 10 miles    
Events      
T = Trace of Precipitation, MM = Missing Value Source: NWS Daily Summary

Daily Weather History Graph

Daily Weather History Graph

Search for Another Location

Airport or City:

Trip Planner

Search our weather history database for the weather conditions in past years. The results will help you decide how hot, cold, wet, or windy it might be!

Date:

Astronomy

Nov. 07, 2013 Rise Set
Actual Time 7:05 AM MST 5:16 PM MST
Civil Twilight 6:36 AM MST 5:45 PM MST
Nautical Twilight 6:04 AM MST 6:18 PM MST
Astronomical Twilight 5:32 AM MST 6:50 PM MST
Moon 11:17 AM MST (11/7) 9:32 PM MST (11/7)
Length of Visible Light 11h 08m
Length of Day
10h 11m
Waxing Crescent, 23% of the Moon is Illuminated
Nov 7
Waxing Crescent
Nov 9
First Quarter
Nov 17
Full
Nov 25
Last Quarter
Dec 2
New

Hourly Weather History & Observations

Time (MST) Temp. Windchill Dew Point Humidity Pressure Visibility Wind Dir Wind Speed Gust Speed Precip Events Conditions
12:53 AM 39.9 °F 35.1 °F 26.1 °F 58% 30.38 in 10.0 mi SE 6.9 mph - N/A   Partly Cloudy
1:53 AM 39.9 °F 33.9 °F 26.1 °F 58% 30.36 in 10.0 mi SE 9.2 mph - N/A   Partly Cloudy
2:53 AM 42.1 °F 36.6 °F 26.1 °F 53% 30.36 in 10.0 mi SSE 9.2 mph - N/A   Partly Cloudy
3:53 AM 43.0 °F 37.2 °F 26.1 °F 51% 30.33 in 10.0 mi SSE 10.4 mph - N/A   Scattered Clouds
4:53 AM 42.1 °F 36.1 °F 27.0 °F 55% 30.33 in 10.0 mi SSE 10.4 mph - N/A   Scattered Clouds
5:53 AM 39.9 °F 33.9 °F 26.1 °F 58% 30.33 in 10.0 mi SE 9.2 mph - N/A   Scattered Clouds
6:53 AM 44.1 °F 38.1 °F 26.1 °F 49% 30.32 in 10.0 mi SSE 11.5 mph - N/A   Mostly Cloudy
7:53 AM 45.0 °F 41.2 °F 27.0 °F 49% 30.34 in 10.0 mi SSE 6.9 mph - N/A   Mostly Cloudy
8:53 AM 45.0 °F 40.1 °F 28.0 °F 52% 30.34 in 10.0 mi ESE 9.2 mph - N/A   Mostly Cloudy
9:53 AM 48.0 °F - 28.0 °F 46% 30.30 in 10.0 mi SSE 11.5 mph - N/A   Mostly Cloudy
10:53 AM 54.0 °F - 27.0 °F 35% 30.25 in 10.0 mi SE 10.4 mph - N/A   Mostly Cloudy
11:53 AM 55.9 °F - 26.1 °F 32% 30.23 in 10.0 mi South 9.2 mph - N/A   Mostly Cloudy
12:53 PM 57.0 °F - 26.1 °F 30% 30.19 in 10.0 mi SE 9.2 mph - N/A   Mostly Cloudy
1:53 PM 59.0 °F - 27.0 °F 29% 30.14 in 10.0 mi SE 9.2 mph - N/A   Mostly Cloudy
2:53 PM 59.0 °F - 27.0 °F 29% 30.09 in 10.0 mi SSE 4.6 mph - N/A   Mostly Cloudy
3:53 PM 54.0 °F - 32.0 °F 43% 30.11 in 10.0 mi West 12.7 mph - N/A   Overcast
4:53 PM 55.0 °F - 32.0 °F 42% 30.06 in 10.0 mi Calm Calm - N/A   Overcast
5:53 PM 51.1 °F - 36.0 °F 56% 30.06 in 10.0 mi Calm Calm - N/A   Mostly Cloudy
6:53 PM 53.1 °F - 32.0 °F 45% 30.03 in 10.0 mi WNW 8.1 mph - N/A   Mostly Cloudy
7:53 PM 53.1 °F - 30.0 °F 41% 29.98 in 10.0 mi SE 8.1 mph - N/A   Mostly Cloudy
8:53 PM 55.9 °F - 27.0 °F 33% 29.96 in 10.0 mi Calm Calm - N/A   Mostly Cloudy
9:53 PM 57.9 °F - 26.1 °F 30% 29.95 in 10.0 mi SSE 13.8 mph - N/A   Mostly Cloudy
10:53 PM 59.0 °F - 24.1 °F 26% 29.92 in 10.0 mi South 16.1 mph 24.2 mph N/A   Mostly Cloudy
11:53 PM 60.1 °F - 23.0 °F 24% 29.91 in 10.0 mi South 19.6 mph 26.5 mph N/A   Mostly Cloudy